Alexander City, AL

2:52 AM CST on December 08, 2019 (GMT -0600)
Russell

Weather History for KALX - October, 2019

Change the Weather History Date:

Thursday, October 10, 2019

  Actual Average (KAUO) Record (KAUO)
Temperature  
Mean Temperature 72 °F -  
Max Temperature 83 °F 76 °F 88 °F (2010)
Min Temperature 62 °F 52 °F 37 °F (2000)
Cooling Degree Days 8    
Growing Degree Days 22 (Base 50)    
Moisture  
Dew Point 61 °F    
Average Humidity 73    
Maximum Humidity 95    
Minimum Humidity 43    
Precipitation  
Precipitation 0.00 in - - ()
Sea Level Pressure  
Sea Level Pressure 30.11 in    
Wind  
Wind Speed 2 mph (East)    
Max Wind Speed 10 mph    
Max Gust Speed 9 mph    
Visibility 10 miles    
Events      
Averages and records for this station are not official NWS values.
T = Trace of Precipitation, MM = Missing Value Source: NWS Daily Summary

Daily Weather History Graph

Daily Weather History Graph

Search for Another Location

Airport or City:

Astronomy

Oct. 10, 2019 Rise Set
Actual Time 6:44 AM CDT 6:17 PM CDT
Civil Twilight 6:19 AM CDT 6:41 PM CDT
Nautical Twilight 5:50 AM CDT 7:10 PM CDT
Astronomical Twilight 5:22 AM CDT 7:38 PM CDT
Moon 5:05 PM CDT (10/10) 3:42 AM CDT (10/10)
Length of Visible Light 12h 22m
Length of Day
11h 32m
Waxing Gibbous, 91% of the Moon is Illuminated
Oct 10
Waxing Gibbous
Oct 13
Full
Oct 21
Last Quarter
Oct 27
New
Nov 4
First Quarter

Hourly Weather History & Observations

Time (CDT) Temp. Heat Index Dew Point Humidity Pressure Visibility Wind Dir Wind Speed Gust Speed Precip Events Conditions
12:15 AM 68.4 °F - 63.0 °F 83% 30.11 in 10.0 mi East 3.5 mph - N/A   Scattered Clouds
12:35 AM 68.0 °F - 62.6 °F 83% 30.10 in 10.0 mi East 3.5 mph - N/A   Scattered Clouds
12:55 AM 67.3 °F - 62.6 °F 85% 30.10 in 10.0 mi Calm Calm - N/A   Clear
1:15 AM 66.7 °F - 62.6 °F 86% 30.11 in 10.0 mi Calm Calm - N/A   Clear
1:35 AM 66.6 °F - 62.6 °F 87% 30.11 in 10.0 mi East 3.5 mph - N/A   Scattered Clouds
1:55 AM 66.2 °F - 62.1 °F 86% 30.10 in 10.0 mi Calm Calm - N/A   Scattered Clouds
2:15 AM 65.5 °F - 61.9 °F 88% 30.10 in 10.0 mi Calm Calm - N/A   Clear
2:35 AM 65.3 °F - 62.1 °F 89% 30.11 in 10.0 mi Calm Calm - N/A   Mostly Cloudy
2:55 AM 65.3 °F - 61.9 °F 89% 30.10 in 10.0 mi Calm Calm - N/A   Mostly Cloudy
3:15 AM 64.6 °F - 62.1 °F 92% 30.10 in 10.0 mi Calm Calm - N/A   Scattered Clouds
3:35 AM 64.0 °F - 61.7 °F 92% 30.10 in 10.0 mi Calm Calm - N/A   Clear
3:55 AM 63.7 °F - 61.7 °F 93% 30.10 in 10.0 mi Calm Calm - N/A   Scattered Clouds
4:15 AM 63.7 °F - 61.7 °F 93% 30.10 in 10.0 mi Calm Calm - N/A   Scattered Clouds
4:35 AM 63.7 °F - 61.3 °F 92% 30.11 in 10.0 mi Calm Calm - N/A   Clear
4:55 AM 63.3 °F - 61.5 °F 94% 30.11 in 10.0 mi Calm Calm - N/A   Clear
5:15 AM 62.2 °F - 60.8 °F 95% 30.12 in 10.0 mi Calm Calm - N/A   Clear
5:35 AM 62.8 °F - 61.2 °F 94% 30.12 in 10.0 mi Calm Calm - N/A   Clear
6:15 AM 63.0 °F - 61.2 °F 94% 30.13 in 10.0 mi Calm Calm - N/A   Scattered Clouds
6:35 AM 63.0 °F - 61.0 °F 93% 30.14 in 10.0 mi Calm Calm - N/A   Scattered Clouds
6:55 AM 63.0 °F - 61.0 °F 93% 30.14 in 10.0 mi Calm Calm - N/A   Mostly Cloudy
7:15 AM 62.8 °F - 60.8 °F 93% 30.14 in 10.0 mi Calm Calm - N/A   Scattered Clouds
7:35 AM 63.5 °F - 61.2 °F 92% 30.14 in 10.0 mi Calm Calm - N/A   Clear
7:55 AM 64.4 °F - 61.3 °F 90% 30.15 in 10.0 mi Calm Calm - N/A   Scattered Clouds
8:15 AM 65.8 °F - 61.9 °F 87% 30.16 in 10.0 mi East 3.5 mph - N/A   Scattered Clouds
8:35 AM 67.1 °F - 61.7 °F 83% 30.16 in 10.0 mi ESE 5.8 mph - N/A   Scattered Clouds
8:55 AM 68.5 °F - 62.1 °F 80% 30.16 in 10.0 mi East 4.6 mph - N/A   Scattered Clouds
9:15 AM 70.0 °F - 62.4 °F 77% 30.16 in 10.0 mi East 6.9 mph - N/A   Scattered Clouds
9:35 AM 70.5 °F - 62.4 °F 75% 30.17 in 10.0 mi East 4.6 mph - N/A   Scattered Clouds
9:55 AM 72.0 °F - 62.2 °F 71% 30.17 in 10.0 mi ESE 10.4 mph - N/A   Scattered Clouds
10:15 AM 73.4 °F - 62.4 °F 68% 30.17 in 10.0 mi East 5.8 mph - N/A   Clear
10:35 AM 74.8 °F - 62.6 °F 66% 30.16 in 10.0 mi ESE 5.8 mph - N/A   Scattered Clouds
10:55 AM 75.0 °F - 62.2 °F 64% 30.16 in 10.0 mi SE 3.5 mph - N/A   Scattered Clouds
11:15 AM 75.6 °F - 62.1 °F 63% 30.16 in 10.0 mi East 8.1 mph - N/A   Clear
11:35 AM 76.6 °F - 61.9 °F 60% 30.16 in 10.0 mi East 6.9 mph - N/A   Clear
11:55 AM 76.8 °F - 61.3 °F 59% 30.15 in 10.0 mi SE 6.9 mph - N/A   Clear
12:15 PM 79.0 °F - 62.1 °F 56% 30.14 in 10.0 mi ESE 3.5 mph - N/A   Clear
12:35 PM 78.8 °F - 60.8 °F 54% 30.13 in 10.0 mi SSE 4.6 mph 9.2 mph N/A   Clear
12:55 PM 80.4 °F 81.4 °F 61.2 °F 52% 30.12 in 10.0 mi SE 5.8 mph - N/A   Clear
1:15 PM 80.8 °F 81.8 °F 61.5 °F 52% 30.11 in 10.0 mi East 5.8 mph - N/A   Clear
1:35 PM 81.1 °F 82.0 °F 61.5 °F 51% 30.10 in 10.0 mi ENE 6.9 mph - N/A   Clear
1:55 PM 81.9 °F 82.5 °F 60.8 °F 49% 30.09 in 10.0 mi Calm Calm - N/A   Clear
2:15 PM 81.7 °F 82.2 °F 60.3 °F 48% 30.08 in 10.0 mi ENE 4.6 mph - N/A   Clear
2:35 PM 82.2 °F 82.6 °F 60.1 °F 47% 30.08 in 10.0 mi ESE 4.6 mph - N/A   Clear
2:55 PM 82.6 °F 82.6 °F 59.4 °F 45% 30.07 in 10.0 mi SE 5.8 mph - N/A   Clear
3:15 PM 82.9 °F 82.8 °F 59.2 °F 44% 30.06 in 10.0 mi ESE 8.1 mph - N/A   Clear
3:35 PM 83.7 °F 83.4 °F 59.2 °F 43% 30.07 in 10.0 mi Calm Calm - N/A   Clear
3:55 PM 83.1 °F 83.0 °F 59.4 °F 44% 30.06 in 10.0 mi ENE 5.8 mph - N/A   Clear
4:15 PM 82.6 °F 82.5 °F 58.8 °F 44% 30.06 in 10.0 mi ENE 5.8 mph - N/A   Clear
4:35 PM 82.9 °F 82.8 °F 58.8 °F 44% 30.05 in 10.0 mi Calm Calm - N/A   Clear
5:15 PM 81.9 °F 81.7 °F 57.4 °F 43% 30.05 in 10.0 mi East 5.8 mph - N/A   Clear
5:35 PM 81.5 °F 81.7 °F 58.6 °F 46% 30.05 in 10.0 mi East 4.6 mph - N/A   Clear
5:55 PM 80.1 °F 80.6 °F 58.3 °F 47% 30.05 in 10.0 mi Calm Calm - N/A   Clear
6:15 PM 78.1 °F - 61.3 °F 56% 30.05 in 10.0 mi Calm Calm - N/A   Clear
6:35 PM 74.8 °F - 64.0 °F 69% 30.06 in 10.0 mi Calm Calm - N/A   Clear
6:55 PM 73.0 °F - 64.8 °F 75% 30.05 in 10.0 mi Calm Calm - N/A   Clear
7:15 PM 72.9 °F - 63.1 °F 71% 30.05 in 10.0 mi Calm Calm - N/A   Clear
7:35 PM 72.3 °F - 61.9 °F 70% 30.05 in 10.0 mi Calm Calm - N/A   Clear
7:55 PM 71.6 °F - 62.1 °F 72% 30.06 in 10.0 mi Calm Calm - N/A   Clear
8:15 PM 71.8 °F - 61.9 °F 71% 30.06 in 10.0 mi Calm Calm - N/A   Clear
8:35 PM 71.4 °F - 60.6 °F 69% 30.06 in 10.0 mi Calm Calm - N/A   Clear
8:55 PM 70.5 °F - 60.1 °F 69% 30.08 in 10.0 mi Calm Calm - N/A   Clear
9:15 PM 70.3 °F - 59.9 °F 69% 30.09 in 10.0 mi Calm Calm - N/A   Clear
9:35 PM 66.0 °F - 60.1 °F 81% 30.09 in 10.0 mi Calm Calm - N/A   Clear
9:55 PM 67.3 °F - 60.4 °F 79% 30.10 in 10.0 mi Calm Calm - N/A   Clear
10:15 PM 66.6 °F - 60.4 °F 81% 30.11 in 10.0 mi Calm Calm - N/A   Clear
10:35 PM 64.9 °F - 60.1 °F 84% 30.11 in 10.0 mi Calm Calm - N/A   Clear
10:55 PM 65.3 °F - 60.1 °F 83% 30.11 in 10.0 mi Calm Calm - N/A   Clear
11:15 PM 65.3 °F - 60.8 °F 85% 30.10 in 10.0 mi Calm Calm - N/A   Clear
11:35 PM 62.8 °F - 59.2 °F 88% 30.09 in 10.0 mi Calm Calm - N/A   Clear
11:55 PM 65.5 °F - 59.9 °F 82% 30.09 in 10.0 mi Calm Calm - N/A   Clear